Year,Month,Day,Hour,Minute,Value (Times are PST for temperature in C)
2007,08,14,00,00,12.40
2007,08,14,00,01,12.40
2007,08,14,00,02,12.40
2007,08,14,00,03,12.40
2007,08,14,00,04,12.40
2007,08,14,00,05,12.40
2007,08,14,00,06,12.30
2007,08,14,00,07,12.30
2007,08,14,00,08,12.30
2007,08,14,00,09,12.30
2007,08,14,00,10,12.30
2007,08,14,00,11,12.30
2007,08,14,00,12,12.30
2007,08,14,00,13,12.30
2007,08,14,00,14,12.30
2007,08,14,00,15,12.30
2007,08,14,00,16,12.30
2007,08,14,00,17,12.30
2007,08,14,00,18,12.40
2007,08,14,00,19,12.40
2007,08,14,00,20,12.50
2007,08,14,00,21,12.50
2007,08,14,00,22,12.60
2007,08,14,00,23,12.60
2007,08,14,00,24,12.60
2007,08,14,00,25,12.60
2007,08,14,00,26,12.60
2007,08,14,00,27,12.60
2007,08,14,00,28,12.60
2007,08,14,00,29,12.60
2007,08,14,00,30,12.60
2007,08,14,00,31,12.60
2007,08,14,00,32,12.60
2007,08,14,00,33,12.50
2007,08,14,00,34,12.50
2007,08,14,00,35,12.40
2007,08,14,00,36,12.40
2007,08,14,00,37,12.40
2007,08,14,00,38,12.40
2007,08,14,00,39,12.40
2007,08,14,00,40,12.50
2007,08,14,00,41,12.60
2007,08,14,00,42,12.60
2007,08,14,00,43,12.60
2007,08,14,00,44,12.60
2007,08,14,00,45,12.60
2007,08,14,00,46,12.60
2007,08,14,00,47,12.60
2007,08,14,00,48,12.60
2007,08,14,00,49,12.60
2007,08,14,00,50,12.60
2007,08,14,00,51,12.60
2007,08,14,00,52,12.60
2007,08,14,00,53,12.60
2007,08,14,00,54,12.50
2007,08,14,00,55,12.50
2007,08,14,00,56,12.50
2007,08,14,00,57,12.40
2007,08,14,00,58,12.40
2007,08,14,00,59,12.40
2007,08,14,01,00,12.40
2007,08,14,01,01,12.50
2007,08,14,01,02,12.50
2007,08,14,01,03,12.50
2007,08,14,01,04,12.60
2007,08,14,01,05,12.60
2007,08,14,01,06,12.60
2007,08,14,01,07,12.70
2007,08,14,01,08,12.70
2007,08,14,01,09,12.80
2007,08,14,01,10,12.80
2007,08,14,01,11,12.80
2007,08,14,01,12,12.80
2007,08,14,01,13,12.80
2007,08,14,01,14,12.80
2007,08,14,01,15,12.80
2007,08,14,01,16,12.80
2007,08,14,01,17,12.80
2007,08,14,01,18,12.80
2007,08,14,01,19,12.80
2007,08,14,01,20,12.80
2007,08,14,01,21,12.80
2007,08,14,01,22,12.80
2007,08,14,01,23,12.80
2007,08,14,01,24,12.80
2007,08,14,01,25,12.70
2007,08,14,01,26,12.70
2007,08,14,01,27,12.70
2007,08,14,01,28,12.70
2007,08,14,01,29,12.70
2007,08,14,01,30,12.70
2007,08,14,01,31,12.70
2007,08,14,01,32,12.70
2007,08,14,01,33,12.70
2007,08,14,01,34,12.70
2007,08,14,01,35,12.70
2007,08,14,01,36,12.70
2007,08,14,01,37,12.70
2007,08,14,01,38,12.70
2007,08,14,01,39,12.70
2007,08,14,01,40,12.80
2007,08,14,01,41,12.80
2007,08,14,01,42,12.80
2007,08,14,01,43,12.70
2007,08,14,01,44,12.70
2007,08,14,01,45,12.70
2007,08,14,01,46,12.70
2007,08,14,01,47,12.70
2007,08,14,01,48,12.70
2007,08,14,01,49,12.70
2007,08,14,01,50,12.70
2007,08,14,01,51,12.70
2007,08,14,01,52,12.70
2007,08,14,01,53,12.70
2007,08,14,01,54,12.70
2007,08,14,01,55,12.60
2007,08,14,01,56,12.60
2007,08,14,01,57,12.60
2007,08,14,01,58,12.60
2007,08,14,01,59,12.60
2007,08,14,02,00,12.60
2007,08,14,02,01,12.60
2007,08,14,02,02,12.60
2007,08,14,02,03,12.60
2007,08,14,02,04,12.60
2007,08,14,02,05,12.60
2007,08,14,02,06,12.60
2007,08,14,02,07,12.60
2007,08,14,02,08,12.60
2007,08,14,02,09,12.60
2007,08,14,02,10,12.60
2007,08,14,02,11,12.60
2007,08,14,02,12,12.60
2007,08,14,02,13,12.60
2007,08,14,02,14,12.60
2007,08,14,02,15,12.60
2007,08,14,02,16,12.60
2007,08,14,02,17,12.60
2007,08,14,02,18,12.60
2007,08,14,02,19,12.60
2007,08,14,02,20,12.60
2007,08,14,02,21,12.60
2007,08,14,02,22,12.60
2007,08,14,02,23,12.60
2007,08,14,02,24,12.60
2007,08,14,02,25,12.60
2007,08,14,02,26,12.60
2007,08,14,02,27,12.60
2007,08,14,02,28,12.60
2007,08,14,02,29,12.60
2007,08,14,02,30,12.50
2007,08,14,02,31,12.50
2007,08,14,02,32,12.40
2007,08,14,02,33,12.40
2007,08,14,02,34,12.40
2007,08,14,02,35,12.40
2007,08,14,02,36,12.40
2007,08,14,02,37,12.40
2007,08,14,02,38,12.30
2007,08,14,02,39,12.30
2007,08,14,02,40,12.30
2007,08,14,02,41,12.30
2007,08,14,02,42,12.30
2007,08,14,02,43,12.30
2007,08,14,02,44,12.30
2007,08,14,02,45,12.30
2007,08,14,02,46,12.30
2007,08,14,02,47,12.30
2007,08,14,02,48,12.30
2007,08,14,02,49,12.30
2007,08,14,02,50,12.30
2007,08,14,02,51,12.30
2007,08,14,02,52,12.30
2007,08,14,02,53,12.20
2007,08,14,02,54,12.20
2007,08,14,02,55,12.20
2007,08,14,02,56,12.10
2007,08,14,02,57,12.10
2007,08,14,02,58,12.10
2007,08,14,02,59,12.00
2007,08,14,03,00,12.00
2007,08,14,03,01,11.90
2007,08,14,03,02,11.90
2007,08,14,03,03,11.80
2007,08,14,03,04,11.80
2007,08,14,03,05,11.70
2007,08,14,03,06,11.70
2007,08,14,03,07,11.60
2007,08,14,03,08,11.60
2007,08,14,03,09,11.60
2007,08,14,03,10,11.60
2007,08,14,03,11,11.50
2007,08,14,03,12,11.50
2007,08,14,03,13,11.40
2007,08,14,03,14,11.40
2007,08,14,03,15,11.40
2007,08,14,03,16,11.40
2007,08,14,03,17,11.30
2007,08,14,03,18,11.30
2007,08,14,03,19,11.30
2007,08,14,03,20,11.30
2007,08,14,03,21,11.30
2007,08,14,03,22,11.30
2007,08,14,03,23,11.20
2007,08,14,03,24,11.20
2007,08,14,03,25,11.20
2007,08,14,03,26,11.20
2007,08,14,03,27,11.20
2007,08,14,03,28,11.10
2007,08,14,03,29,11.10
2007,08,14,03,30,11.10
2007,08,14,03,31,11.10
2007,08,14,03,32,11.10
2007,08,14,03,33,11.10
2007,08,14,03,34,11.10
2007,08,14,03,35,11.10
2007,08,14,03,36,11.10
2007,08,14,03,37,11.10
2007,08,14,03,38,11.00
2007,08,14,03,39,11.00
2007,08,14,03,40,11.00
2007,08,14,03,41,11.00
2007,08,14,03,42,11.00
2007,08,14,03,43,11.00
2007,08,14,03,44,11.10
2007,08,14,03,45,11.10
2007,08,14,03,46,11.10
2007,08,14,03,47,11.10
2007,08,14,03,48,11.10
2007,08,14,03,49,11.10
2007,08,14,03,50,11.00
2007,08,14,03,51,11.00
2007,08,14,03,52,11.00
2007,08,14,03,53,11.00
2007,08,14,03,54,11.00
2007,08,14,03,55,11.00
2007,08,14,03,56,11.00
2007,08,14,03,57,11.00
2007,08,14,03,58,11.00
2007,08,14,03,59,10.90
2007,08,14,04,00,10.90
2007,08,14,04,01,10.90
2007,08,14,04,02,10.90
2007,08,14,04,03,10.90
2007,08,14,04,04,10.90
2007,08,14,04,05,10.90
2007,08,14,04,06,10.90
2007,08,14,04,07,10.90
2007,08,14,04,08,10.90
2007,08,14,04,09,10.90
2007,08,14,04,10,10.90
2007,08,14,04,11,10.90
2007,08,14,04,12,10.90
2007,08,14,04,13,10.90
2007,08,14,04,14,10.90
2007,08,14,04,15,10.90
2007,08,14,04,16,10.90
2007,08,14,04,17,10.90
2007,08,14,04,18,10.80
2007,08,14,04,19,10.80
2007,08,14,04,20,10.80
2007,08,14,04,21,10.80
2007,08,14,04,22,10.80
2007,08,14,04,23,10.80
2007,08,14,04,24,10.80
2007,08,14,04,25,10.80
2007,08,14,04,26,10.70
2007,08,14,04,27,10.70
2007,08,14,04,28,10.70
2007,08,14,04,29,10.70
2007,08,14,04,30,10.70
2007,08,14,04,31,10.70
2007,08,14,04,32,10.70
2007,08,14,04,33,10.70
2007,08,14,04,34,10.70
2007,08,14,04,35,10.70
2007,08,14,04,36,10.60
2007,08,14,04,37,10.60
2007,08,14,04,38,10.60
2007,08,14,04,39,10.60
2007,08,14,04,40,10.60
2007,08,14,04,41,10.60
2007,08,14,04,42,10.60
2007,08,14,04,43,10.60
2007,08,14,04,44,10.60
2007,08,14,04,45,10.60
2007,08,14,04,46,10.60
2007,08,14,04,47,10.60
2007,08,14,04,48,10.50
2007,08,14,04,49,10.50
2007,08,14,04,50,10.50
2007,08,14,04,51,10.50
2007,08,14,04,52,10.50
2007,08,14,04,53,10.50
2007,08,14,04,54,10.50
2007,08,14,04,55,10.50
2007,08,14,04,56,10.40
2007,08,14,04,57,10.40
2007,08,14,04,58,10.40
2007,08,14,04,59,10.40
2007,08,14,05,00,10.40
2007,08,14,05,01,10.40
2007,08,14,05,02,10.40
2007,08,14,05,03,10.40
2007,08,14,05,04,10.40
2007,08,14,05,05,10.50
2007,08,14,05,06,10.50
2007,08,14,05,07,10.50
2007,08,14,05,08,10.60
2007,08,14,05,09,10.60
2007,08,14,05,10,10.60
2007,08,14,05,11,10.60
2007,08,14,05,12,10.60
2007,08,14,05,13,10.60
2007,08,14,05,14,10.60
2007,08,14,05,15,10.60
2007,08,14,05,16,10.60
2007,08,14,05,17,10.60
2007,08,14,05,18,10.70
2007,08,14,05,19,10.60
2007,08,14,05,20,10.60
2007,08,14,05,21,10.60
2007,08,14,05,22,10.60
2007,08,14,05,23,10.70
2007,08,14,05,24,10.70
2007,08,14,05,25,10.70
2007,08,14,05,26,10.70
2007,08,14,05,27,10.70
2007,08,14,05,28,10.70
2007,08,14,05,29,10.70
2007,08,14,05,30,10.70
2007,08,14,05,31,10.70
2007,08,14,05,32,10.70
2007,08,14,05,33,10.70
2007,08,14,05,34,10.70
2007,08,14,05,35,10.70
2007,08,14,05,36,10.70
2007,08,14,05,37,10.70
2007,08,14,05,38,10.70
2007,08,14,05,39,10.70
2007,08,14,05,40,10.70
2007,08,14,05,41,10.70
2007,08,14,05,42,10.70
2007,08,14,05,43,10.70
2007,08,14,05,44,10.70
2007,08,14,05,45,10.70
2007,08,14,05,46,10.70
2007,08,14,05,47,10.70
2007,08,14,05,48,10.70
2007,08,14,05,49,10.70
2007,08,14,05,50,10.70
2007,08,14,05,51,10.70
2007,08,14,05,52,10.70
2007,08,14,05,53,10.70
2007,08,14,05,54,10.70
2007,08,14,05,55,10.70
2007,08,14,05,56,10.60
2007,08,14,05,57,10.60
2007,08,14,05,58,10.60
2007,08,14,05,59,10.60
2007,08,14,06,00,10.60
2007,08,14,06,01,10.60
2007,08,14,06,02,10.60
2007,08,14,06,03,10.60
2007,08,14,06,04,10.60
2007,08,14,06,05,10.50
2007,08,14,06,06,10.50
2007,08,14,06,07,10.50
2007,08,14,06,08,10.50
2007,08,14,06,09,10.40
2007,08,14,06,10,10.40
2007,08,14,06,11,10.40
2007,08,14,06,12,10.40
2007,08,14,06,13,10.40
2007,08,14,06,14,10.40
2007,08,14,06,15,10.30
2007,08,14,06,16,10.30
2007,08,14,06,17,10.30
2007,08,14,06,18,10.30
2007,08,14,06,19,10.30
2007,08,14,06,20,10.40
2007,08,14,06,21,10.40
2007,08,14,06,22,10.40
2007,08,14,06,23,10.40
2007,08,14,06,24,10.40
2007,08,14,06,25,10.40
2007,08,14,06,26,10.40
2007,08,14,06,27,10.40
2007,08,14,06,28,10.40
2007,08,14,06,29,10.40
2007,08,14,06,30,10.40
2007,08,14,06,31,10.40
2007,08,14,06,32,10.40
2007,08,14,06,33,10.50
2007,08,14,06,34,10.50
2007,08,14,06,35,10.50
2007,08,14,06,36,10.50
2007,08,14,06,37,10.60
2007,08,14,06,38,10.60
2007,08,14,06,39,10.60
2007,08,14,06,40,10.60
2007,08,14,06,41,10.60
2007,08,14,06,42,10.60
2007,08,14,06,43,10.70
2007,08,14,06,44,10.70
2007,08,14,06,45,10.70
2007,08,14,06,46,10.70
2007,08,14,06,47,10.70
2007,08,14,06,48,10.80
2007,08,14,06,49,10.80
2007,08,14,06,50,10.80
2007,08,14,06,51,10.80
2007,08,14,06,52,10.80
2007,08,14,06,53,10.80
2007,08,14,06,54,10.90
2007,08,14,06,55,10.90
2007,08,14,06,56,10.90
2007,08,14,06,57,10.90
2007,08,14,06,58,11.00
2007,08,14,06,59,11.00
2007,08,14,07,00,11.00
2007,08,14,07,01,11.00
2007,08,14,07,02,11.10
2007,08,14,07,03,11.10
2007,08,14,07,04,11.20
2007,08,14,07,05,11.20
2007,08,14,07,06,11.20
2007,08,14,07,07,11.20
2007,08,14,07,08,11.30
2007,08,14,07,09,11.30
2007,08,14,07,10,11.30
2007,08,14,07,11,11.30
2007,08,14,07,12,11.40
2007,08,14,07,13,11.40
2007,08,14,07,14,11.50
2007,08,14,07,15,11.60
2007,08,14,07,16,11.60
2007,08,14,07,17,11.60
2007,08,14,07,18,11.70
2007,08,14,07,19,11.70
2007,08,14,07,20,11.80
2007,08,14,07,21,11.80
2007,08,14,07,22,11.80
2007,08,14,07,23,11.90
2007,08,14,07,24,11.90
2007,08,14,07,25,12.00
2007,08,14,07,26,12.00
2007,08,14,07,27,12.10
2007,08,14,07,28,12.20
2007,08,14,07,29,12.20
2007,08,14,07,30,12.30
2007,08,14,07,31,12.40
2007,08,14,07,32,12.40
2007,08,14,07,33,12.50
2007,08,14,07,34,12.60
2007,08,14,07,35,12.60
2007,08,14,07,36,12.70
2007,08,14,07,37,12.80
2007,08,14,07,38,12.80
2007,08,14,07,39,12.80
2007,08,14,07,40,12.90
2007,08,14,07,41,12.90
2007,08,14,07,42,12.90
2007,08,14,07,43,12.90
2007,08,14,07,44,13.00
2007,08,14,07,45,13.00
2007,08,14,07,46,13.10
2007,08,14,07,47,13.10
2007,08,14,07,48,13.20
2007,08,14,07,49,13.30
2007,08,14,07,50,13.30
2007,08,14,07,51,13.40
2007,08,14,07,52,13.50
2007,08,14,07,53,13.60
2007,08,14,07,54,13.70
2007,08,14,07,55,13.80
2007,08,14,07,56,13.90
2007,08,14,07,57,14.00
2007,08,14,07,58,14.00
2007,08,14,07,59,14.10
2007,08,14,08,00,14.20
2007,08,14,08,01,14.30
2007,08,14,08,02,14.40
2007,08,14,08,03,14.40
2007,08,14,08,04,14.50
2007,08,14,08,05,14.60
2007,08,14,08,06,14.70
2007,08,14,08,07,14.80
2007,08,14,08,08,15.00
2007,08,14,08,09,15.00
2007,08,14,08,10,15.10
2007,08,14,08,11,15.30
2007,08,14,08,12,15.30
2007,08,14,08,13,15.40
2007,08,14,08,14,15.40
2007,08,14,08,15,15.40
2007,08,14,08,16,15.50
2007,08,14,08,17,15.50
2007,08,14,08,18,15.60
2007,08,14,08,19,15.70
2007,08,14,08,20,15.80
2007,08,14,08,21,15.90
2007,08,14,08,22,16.00
2007,08,14,08,23,16.20
2007,08,14,08,24,16.30
2007,08,14,08,25,16.30
2007,08,14,08,26,16.40
2007,08,14,08,27,16.40
2007,08,14,08,28,16.50
2007,08,14,08,29,16.60
2007,08,14,08,30,16.60
2007,08,14,08,31,16.70
2007,08,14,08,32,16.70
2007,08,14,08,33,16.80
2007,08,14,08,34,16.90
2007,08,14,08,35,17.00
2007,08,14,08,36,17.00
2007,08,14,08,37,17.10
2007,08,14,08,38,17.20
2007,08,14,08,39,17.30
2007,08,14,08,40,17.30
2007,08,14,08,41,17.40
2007,08,14,08,42,17.50
2007,08,14,08,43,17.60
2007,08,14,08,44,17.70
2007,08,14,08,45,17.70
2007,08,14,08,46,17.80
2007,08,14,08,47,17.80
2007,08,14,08,48,17.90
2007,08,14,08,49,18.00
2007,08,14,08,50,18.10
2007,08,14,08,51,18.20
2007,08,14,08,52,18.20
2007,08,14,08,53,18.30
2007,08,14,08,54,18.40
2007,08,14,08,55,18.50
2007,08,14,08,56,18.50
2007,08,14,08,57,18.60
2007,08,14,08,58,18.70
2007,08,14,08,59,18.80
2007,08,14,09,00,18.90
2007,08,14,09,01,19.00
2007,08,14,09,02,19.10
2007,08,14,09,03,19.30
2007,08,14,09,04,19.40
2007,08,14,09,05,19.50
2007,08,14,09,06,19.60
2007,08,14,09,07,19.70
2007,08,14,09,08,19.80
2007,08,14,09,09,19.90
2007,08,14,09,10,20.00
2007,08,14,09,11,20.00
2007,08,14,09,12,20.00
2007,08,14,09,13,20.10
2007,08,14,09,14,20.10
2007,08,14,09,15,20.10
2007,08,14,09,16,20.00
2007,08,14,09,17,20.00
2007,08,14,09,18,19.90
2007,08,14,09,19,19.90
2007,08,14,09,20,19.90
2007,08,14,09,21,19.90
2007,08,14,09,22,19.90
2007,08,14,09,23,19.90
2007,08,14,09,24,19.80
2007,08,14,09,25,19.80
2007,08,14,09,26,19.90
2007,08,14,09,27,19.90
2007,08,14,09,28,19.90
2007,08,14,09,29,20.00
2007,08,14,09,30,20.00
2007,08,14,09,31,20.00
2007,08,14,09,32,19.90
2007,08,14,09,33,19.90
2007,08,14,09,34,19.90
2007,08,14,09,35,19.90
2007,08,14,09,36,19.90
2007,08,14,09,37,19.90
2007,08,14,09,38,19.90
2007,08,14,09,39,20.00
2007,08,14,09,40,20.10
2007,08,14,09,41,20.10
2007,08,14,09,42,20.10
2007,08,14,09,43,20.10
2007,08,14,09,44,20.10
2007,08,14,09,45,20.20
2007,08,14,09,46,20.10
2007,08,14,09,47,20.20
2007,08,14,09,48,20.20
2007,08,14,09,49,20.30
2007,08,14,09,50,20.30
2007,08,14,09,51,20.20
2007,08,14,09,52,20.20
2007,08,14,09,53,20.20
2007,08,14,09,54,20.20
2007,08,14,09,55,20.20
2007,08,14,09,56,20.20
2007,08,14,09,57,20.30
2007,08,14,09,58,20.40
2007,08,14,09,59,20.50
2007,08,14,10,00,20.60
2007,08,14,10,01,20.60
2007,08,14,10,02,20.60
2007,08,14,10,03,20.60
2007,08,14,10,04,20.60
2007,08,14,10,05,20.70
2007,08,14,10,06,20.70
2007,08,14,10,07,20.70
2007,08,14,10,08,20.80
2007,08,14,10,09,20.80
2007,08,14,10,10,20.70
2007,08,14,10,11,20.70
2007,08,14,10,12,20.70
2007,08,14,10,13,20.70
2007,08,14,10,14,20.80
2007,08,14,10,15,20.80
2007,08,14,10,16,20.80
2007,08,14,10,17,20.60
2007,08,14,10,18,20.60
2007,08,14,10,19,20.60
2007,08,14,10,20,20.70
2007,08,14,10,21,20.70
2007,08,14,10,22,20.80
2007,08,14,10,23,20.80
2007,08,14,10,24,20.90
2007,08,14,10,25,20.90
2007,08,14,10,26,20.90
2007,08,14,10,27,21.00
2007,08,14,10,28,21.10
2007,08,14,10,29,21.20
2007,08,14,10,30,21.20
2007,08,14,10,31,21.30
2007,08,14,10,32,21.20
2007,08,14,10,33,21.20
2007,08,14,10,34,21.10
2007,08,14,10,35,21.10
2007,08,14,10,36,21.10
2007,08,14,10,37,21.10
2007,08,14,10,38,21.10
2007,08,14,10,39,21.10
2007,08,14,10,40,21.20
2007,08,14,10,41,21.20
2007,08,14,10,42,21.30
2007,08,14,10,43,21.30
2007,08,14,10,44,21.30
2007,08,14,10,45,21.40
2007,08,14,10,46,21.40
2007,08,14,10,47,21.40
2007,08,14,10,48,21.40
2007,08,14,10,49,21.50
2007,08,14,10,50,21.60
2007,08,14,10,51,21.70
2007,08,14,10,52,21.80
2007,08,14,10,53,21.90
2007,08,14,10,54,22.10
2007,08,14,10,55,22.20
2007,08,14,10,56,22.30
2007,08,14,10,57,22.40
2007,08,14,10,58,22.40
2007,08,14,10,59,22.40
2007,08,14,11,00,22.40
2007,08,14,11,01,22.40
2007,08,14,11,02,22.30
2007,08,14,11,03,22.30
2007,08,14,11,04,22.40
2007,08,14,11,05,22.40
2007,08,14,11,06,22.40
2007,08,14,11,07,22.50
2007,08,14,11,08,22.60
2007,08,14,11,09,22.70
2007,08,14,11,10,22.70
2007,08,14,11,11,22.80
2007,08,14,11,12,22.80
2007,08,14,11,13,22.80
2007,08,14,11,14,22.90
2007,08,14,11,15,23.00
2007,08,14,11,16,23.10
2007,08,14,11,17,23.10
2007,08,14,11,18,23.10
2007,08,14,11,19,23.20
2007,08,14,11,20,23.20
2007,08,14,11,21,23.30
2007,08,14,11,22,23.30
2007,08,14,11,23,23.30
2007,08,14,11,24,23.40
2007,08,14,11,25,23.50
2007,08,14,11,26,23.50
2007,08,14,11,27,23.50
2007,08,14,11,28,23.50
2007,08,14,11,29,23.40
2007,08,14,11,30,23.40
2007,08,14,11,31,23.40
2007,08,14,11,32,23.30
2007,08,14,11,33,23.30
2007,08,14,11,34,23.30
2007,08,14,11,35,23.30
2007,08,14,11,36,23.40
2007,08,14,11,37,23.50
2007,08,14,11,38,23.60
2007,08,14,11,39,23.60
2007,08,14,11,40,23.60
2007,08,14,11,41,23.40
2007,08,14,11,42,23.30
2007,08,14,11,43,23.30
2007,08,14,11,44,23.30
2007,08,14,11,45,23.40
2007,08,14,11,46,23.60
2007,08,14,11,47,23.60
2007,08,14,11,48,23.50
2007,08,14,11,49,23.40
2007,08,14,11,50,23.30
2007,08,14,11,51,23.20
2007,08,14,11,52,22.90
2007,08,14,11,53,22.80
2007,08,14,11,54,22.80
2007,08,14,11,55,22.80
2007,08,14,11,56,22.70
2007,08,14,11,57,22.70
2007,08,14,11,58,22.80
2007,08,14,11,59,22.90
2007,08,14,12,00,23.00
2007,08,14,12,01,23.10
2007,08,14,12,02,23.20
2007,08,14,12,03,23.10
2007,08,14,12,04,23.00
2007,08,14,12,05,23.00
2007,08,14,12,06,22.90
2007,08,14,12,07,22.90
2007,08,14,12,08,22.80
2007,08,14,12,09,22.80
2007,08,14,12,10,22.70
2007,08,14,12,11,22.70
2007,08,14,12,12,22.60
2007,08,14,12,13,22.60
2007,08,14,12,14,22.60
2007,08,14,12,15,22.30
2007,08,14,12,16,22.10
2007,08,14,12,17,22.10
2007,08,14,12,18,22.10
2007,08,14,12,19,22.10
2007,08,14,12,20,22.10
2007,08,14,12,21,22.10
2007,08,14,12,22,22.10
2007,08,14,12,23,22.10
2007,08,14,12,24,22.10
2007,08,14,12,25,22.10
2007,08,14,12,26,22.10
2007,08,14,12,27,22.10
2007,08,14,12,28,22.10
2007,08,14,12,29,22.10
2007,08,14,12,30,22.20
2007,08,14,12,31,22.20
2007,08,14,12,32,22.20
2007,08,14,12,33,22.30
2007,08,14,12,34,22.40
2007,08,14,12,35,22.50
2007,08,14,12,36,22.60
2007,08,14,12,37,22.80
2007,08,14,12,38,22.90
2007,08,14,12,39,23.00
2007,08,14,12,40,23.20
2007,08,14,12,41,23.30
2007,08,14,12,42,23.30
2007,08,14,12,43,23.40
2007,08,14,12,44,23.40
2007,08,14,12,45,23.50
2007,08,14,12,46,23.50
2007,08,14,12,47,23.40
2007,08,14,12,48,23.30
2007,08,14,12,49,23.20
2007,08,14,12,50,23.00
2007,08,14,12,51,22.80
2007,08,14,12,52,22.80
2007,08,14,12,53,22.80
2007,08,14,12,54,22.60
2007,08,14,12,55,22.50
2007,08,14,12,56,22.40
2007,08,14,12,57,22.40
2007,08,14,12,58,22.60
2007,08,14,12,59,22.70
2007,08,14,13,00,22.80
2007,08,14,13,01,23.00
2007,08,14,13,02,23.00
2007,08,14,13,03,23.00
2007,08,14,13,04,23.10
2007,08,14,13,05,23.00
2007,08,14,13,06,23.00
2007,08,14,13,07,23.00
2007,08,14,13,08,23.00
2007,08,14,13,09,23.10
2007,08,14,13,10,23.10
2007,08,14,13,11,23.20
2007,08,14,13,12,23.30
2007,08,14,13,13,23.30
2007,08,14,13,14,23.40
2007,08,14,13,15,23.40
2007,08,14,13,16,23.40
2007,08,14,13,17,23.40
2007,08,14,13,18,23.50
2007,08,14,13,19,23.40
2007,08,14,13,20,23.30
2007,08,14,13,21,23.30
2007,08,14,13,22,23.40
2007,08,14,13,23,23.40
2007,08,14,13,24,23.50
2007,08,14,13,25,23.60
2007,08,14,13,26,23.80
2007,08,14,13,27,23.90
2007,08,14,13,28,23.90
2007,08,14,13,29,23.90
2007,08,14,13,30,23.80
2007,08,14,13,31,23.70
2007,08,14,13,32,23.70
2007,08,14,13,33,23.60
2007,08,14,13,34,23.60
2007,08,14,13,35,23.60
2007,08,14,13,36,23.60
2007,08,14,13,37,23.60
2007,08,14,13,38,23.60
2007,08,14,13,39,23.70
2007,08,14,13,40,23.70
2007,08,14,13,41,23.80
2007,08,14,13,42,23.70
2007,08,14,13,43,23.70
2007,08,14,13,44,23.60
2007,08,14,13,45,23.50
2007,08,14,13,46,23.50
2007,08,14,13,47,23.60
2007,08,14,13,48,23.50
2007,08,14,13,49,23.40
2007,08,14,13,50,23.40
2007,08,14,13,51,23.40
2007,08,14,13,52,23.40
2007,08,14,13,53,23.40
2007,08,14,13,54,23.60
2007,08,14,13,55,23.70
2007,08,14,13,56,23.80
2007,08,14,13,57,23.80
2007,08,14,13,58,23.80
2007,08,14,13,59,23.80
2007,08,14,14,00,23.90
2007,08,14,14,01,23.90
2007,08,14,14,02,23.90
2007,08,14,14,03,23.90
2007,08,14,14,04,23.90
2007,08,14,14,05,24.10
2007,08,14,14,06,24.20
2007,08,14,14,07,24.20
2007,08,14,14,08,24.30
2007,08,14,14,09,24.30
2007,08,14,14,10,24.20
2007,08,14,14,11,24.20
2007,08,14,14,12,24.10
2007,08,14,14,13,24.20
2007,08,14,14,14,24.30
2007,08,14,14,15,24.40
2007,08,14,14,16,24.50
2007,08,14,14,17,24.50
2007,08,14,14,18,24.50
2007,08,14,14,19,24.40
2007,08,14,14,20,24.40
2007,08,14,14,21,24.40
2007,08,14,14,22,24.30
2007,08,14,14,23,24.30
2007,08,14,14,24,24.40
2007,08,14,14,25,24.40
2007,08,14,14,26,24.50
2007,08,14,14,27,24.50
2007,08,14,14,28,24.40
2007,08,14,14,29,24.30
2007,08,14,14,30,24.30
2007,08,14,14,31,24.30
2007,08,14,14,32,24.50
2007,08,14,14,33,24.70
2007,08,14,14,34,24.80
2007,08,14,14,35,24.80
2007,08,14,14,36,24.80
2007,08,14,14,37,24.80
2007,08,14,14,38,24.70
2007,08,14,14,39,24.70
2007,08,14,14,40,24.80
2007,08,14,14,41,24.80
2007,08,14,14,42,24.90
2007,08,14,14,43,25.00
2007,08,14,14,44,25.00
2007,08,14,14,45,25.10
2007,08,14,14,46,25.10
2007,08,14,14,47,25.00
2007,08,14,14,48,24.80
2007,08,14,14,49,24.80
2007,08,14,14,50,24.80
2007,08,14,14,51,24.80
2007,08,14,14,52,24.80
2007,08,14,14,53,24.80
2007,08,14,14,54,24.90
2007,08,14,14,55,24.80
2007,08,14,14,56,24.80
2007,08,14,14,57,24.90
2007,08,14,14,58,24.90
2007,08,14,14,59,24.90
2007,08,14,15,00,25.00
2007,08,14,15,01,25.00
2007,08,14,15,02,25.10
2007,08,14,15,03,25.10
2007,08,14,15,04,25.00
2007,08,14,15,05,24.90
2007,08,14,15,06,24.60
2007,08,14,15,07,24.40
2007,08,14,15,08,24.50
2007,08,14,15,09,24.60
2007,08,14,15,10,24.50
2007,08,14,15,11,24.40
2007,08,14,15,12,24.30
2007,08,14,15,13,24.40
2007,08,14,15,14,24.60
2007,08,14,15,15,24.70
2007,08,14,15,16,24.70
2007,08,14,15,17,24.80
2007,08,14,15,18,24.80
2007,08,14,15,19,24.80
2007,08,14,15,20,24.90
2007,08,14,15,21,24.90
2007,08,14,15,22,24.90
2007,08,14,15,23,25.00
2007,08,14,15,24,25.10
2007,08,14,15,25,25.00
2007,08,14,15,26,25.00
2007,08,14,15,27,24.90
2007,08,14,15,28,24.90
2007,08,14,15,29,24.80
2007,08,14,15,30,24.70
2007,08,14,15,31,24.70
2007,08,14,15,32,24.70
2007,08,14,15,33,24.80
2007,08,14,15,34,24.90
2007,08,14,15,35,25.10
2007,08,14,15,36,25.10
2007,08,14,15,37,25.10
2007,08,14,15,38,25.20
2007,08,14,15,39,25.20
2007,08,14,15,40,25.20
2007,08,14,15,41,25.20
2007,08,14,15,42,25.30
2007,08,14,15,43,25.40
2007,08,14,15,44,25.40
2007,08,14,15,45,25.40
2007,08,14,15,46,25.50
2007,08,14,15,47,25.50
2007,08,14,15,48,25.60
2007,08,14,15,49,25.50
2007,08,14,15,50,25.50
2007,08,14,15,51,25.40
2007,08,14,15,52,25.30
2007,08,14,15,53,25.30
2007,08,14,15,54,25.20
2007,08,14,15,55,25.10
2007,08,14,15,56,25.00
2007,08,14,15,57,25.00
2007,08,14,15,58,24.90
2007,08,14,15,59,24.80
2007,08,14,16,00,24.80
2007,08,14,16,01,24.80
2007,08,14,16,02,24.70
2007,08,14,16,03,24.70
2007,08,14,16,04,24.80
2007,08,14,16,05,24.90
2007,08,14,16,06,25.10
2007,08,14,16,07,25.30
2007,08,14,16,08,25.40
2007,08,14,16,09,25.60
2007,08,14,16,10,25.60
2007,08,14,16,11,25.50
2007,08,14,16,12,25.40
2007,08,14,16,13,25.30
2007,08,14,16,14,25.30
2007,08,14,16,15,25.40
2007,08,14,16,16,25.40
2007,08,14,16,17,25.40
2007,08,14,16,18,25.50
2007,08,14,16,19,25.50
2007,08,14,16,20,25.40
2007,08,14,16,21,25.30
2007,08,14,16,22,25.20
2007,08,14,16,23,25.20
2007,08,14,16,24,25.20
2007,08,14,16,25,25.20
2007,08,14,16,26,25.20
2007,08,14,16,27,25.10
2007,08,14,16,28,25.00
2007,08,14,16,29,25.00
2007,08,14,16,30,25.00
2007,08,14,16,31,25.10
2007,08,14,16,32,25.10
2007,08,14,16,33,25.20
2007,08,14,16,34,25.10
2007,08,14,16,35,25.10
2007,08,14,16,36,25.10
2007,08,14,16,37,25.00
2007,08,14,16,38,24.90
2007,08,14,16,39,24.90
2007,08,14,16,40,24.90
2007,08,14,16,41,24.90
2007,08,14,16,42,24.90
2007,08,14,16,43,24.90
2007,08,14,16,44,24.80
2007,08,14,16,45,24.70
2007,08,14,16,46,24.70
2007,08,14,16,47,24.70
2007,08,14,16,48,24.70
2007,08,14,16,49,24.70
2007,08,14,16,50,24.70
2007,08,14,16,51,24.70
2007,08,14,16,52,24.80
2007,08,14,16,53,24.90
2007,08,14,16,54,24.90
2007,08,14,16,55,24.90
2007,08,14,16,56,24.90
2007,08,14,16,57,24.90
2007,08,14,16,58,24.90
2007,08,14,16,59,25.00
2007,08,14,17,00,25.00
2007,08,14,17,01,24.90
2007,08,14,17,02,24.80
2007,08,14,17,03,24.70
2007,08,14,17,04,24.60
2007,08,14,17,05,24.60
2007,08,14,17,06,24.60
2007,08,14,17,07,24.50
2007,08,14,17,08,24.50
2007,08,14,17,09,24.60
2007,08,14,17,10,24.60
2007,08,14,17,11,24.70
2007,08,14,17,12,24.80
2007,08,14,17,13,24.80
2007,08,14,17,14,24.80
2007,08,14,17,15,24.80
2007,08,14,17,16,24.80
2007,08,14,17,17,24.80
2007,08,14,17,18,24.80
2007,08,14,17,19,24.70